Zurück zum Katalog

COSMOS 972

AktivMilitärLEO
NORAD 10539·PAYLOAD·🇷🇺 Russia

Gestartet Dec 27, 1977 von Plesetsk Cosmodrome

Loading…

Nächste Überflüge (nächste 24 Stunden)

TLE

AktuellSource: Space-Track

Epoche: Sep 14, 2026, 14:28 UTC

1 10539U 77123A   26257.60333724  .00000023  00000-0  19964-4 0  9996
2 10539  75.8367 330.2202 0302015   4.8365 355.5573 13.89167846468469

Verfolge COSMOS 972 in Echtzeit mit AllMySat

Download on the App Store